Weather History for Crookston, MN

Change the Weather History Date:

Thursday, December 6, 2012

  Actual Average Record
Temperature  
Mean Temperature 26 °F -  
Max Temperature 35 °F 25 °F 37 °F (1999)
Min Temperature 17 °F 11 °F -20 °F (2013)
Degree Days  
Heating Degree Days 39    
Moisture  
Dew Point 21 °F    
Average Humidity 78    
Maximum Humidity 93    
Minimum Humidity 64    
Precipitation  
Precipitation 0.00 in - - ()
Sea Level Pressure  
Sea Level Pressure 29.85 in    
Wind  
Wind Speed 15 mph (WNW)    
Max Wind Speed 25 mph    
Max Gust Speed 33 mph    
Visibility 10 miles    
Events      
Averages and records for this station are not official NWS values.
T = Trace of Precipitation, MM = Missing Value Source: NWS Daily Summary

Daily Weather History Graph

Daily Weather History Graph

Search for Another Location

Airport:

Trip Planner

Search our weather history database for the weather conditions in past years. The results will help you decide how hot, cold, wet, or windy it might be!

Date:

Astronomy

Dec. 06, 2012 Rise Set
Actual Time 8:01 AM CST 4:34 PM CST
Civil Twilight 7:25 AM CST 5:10 PM CST
Nautical Twilight 6:46 AM CST 5:49 PM CST
Astronomical Twilight 6:08 AM CST 6:26 PM CST
Moon No Moon Rise 12:28 PM CST (12/6)
Length of Visible Light 9h 44m
Length of Day
8h 33m
Waning Gibbous, 49% of the Moon is Illuminated
Dec 6
Waning Gibbous
Dec 13
New
Dec 19
First Quarter
Dec 28
Full
Jan 4
Last Quarter

Hourly Weather History & Observations

Time (CST) Temp. Windchill Dew Point Humidity Pressure Visibility Wind Dir Wind Speed Gust Speed Precip Events Conditions
12:14 AM 35.6 °F 26.6 °F 26.6 °F 70% 29.64 in 10.0 mi SSW 13.8 mph - N/A   Scattered Clouds
12:35 AM 35.6 °F 26.6 °F 26.6 °F 70% 29.64 in 10.0 mi SSW 13.8 mph - N/A   Clear
12:55 AM 33.8 °F 24.8 °F 26.6 °F 75% 29.64 in 10.0 mi SSW 12.7 mph - N/A   Clear
1:14 AM 33.8 °F 25.8 °F 26.6 °F 75% 29.63 in 10.0 mi SSW 10.4 mph - N/A   Clear
1:35 AM 33.8 °F 25.3 °F 26.6 °F 75% 29.63 in 10.0 mi SSW 11.5 mph - N/A   Clear
1:55 AM 32.0 °F 24.2 °F 26.6 °F 80% 29.64 in 10.0 mi SSW 9.2 mph - N/A   Clear
2:14 AM 30.2 °F 21.9 °F 26.6 °F 86% 29.64 in 10.0 mi SW 9.2 mph - N/A   Clear
2:35 AM 28.4 °F 19.7 °F 26.6 °F 93% 29.65 in 10.0 mi WSW 9.2 mph - N/A   Clear
2:55 AM 32.0 °F 23.0 °F 26.6 °F 80% 29.67 in 10.0 mi West 11.5 mph 19.6 mph N/A   Clear
3:14 AM 33.8 °F 23.5 °F 28.4 °F 81% 29.67 in 10.0 mi WNW 16.1 mph - N/A   Mostly Cloudy
3:35 AM 35.6 °F 24.5 °F 30.2 °F 81% 29.68 in 10.0 mi WNW 20.7 mph 26.5 mph N/A   Overcast
3:55 AM 35.6 °F 24.8 °F 28.4 °F 75% 29.69 in 10.0 mi WNW 19.6 mph 26.5 mph N/A   Overcast
4:14 AM 35.6 °F 24.5 °F 28.4 °F 75% 29.69 in 10.0 mi WNW 20.7 mph - N/A   Overcast
4:35 AM 33.8 °F 21.6 °F 28.4 °F 81% 29.70 in 10.0 mi WNW 23.0 mph 27.6 mph N/A   Overcast
4:55 AM 33.8 °F 21.0 °F 26.6 °F 75% 29.72 in 10.0 mi NW 25.3 mph 28.8 mph N/A   Overcast
5:14 AM 32.0 °F 18.6 °F 26.6 °F 80% 29.73 in 10.0 mi WNW 25.3 mph 31.1 mph N/A   Overcast
5:35 AM 32.0 °F 19.2 °F 26.6 °F 80% 29.74 in 10.0 mi NW 23.0 mph - N/A   Overcast
5:55 AM 30.2 °F 16.5 °F 24.8 °F 80% 29.75 in 10.0 mi NW 24.2 mph 33.4 mph N/A   Overcast
6:14 AM 30.2 °F 16.5 °F 24.8 °F 80% 29.76 in 10.0 mi NW 24.2 mph 27.6 mph N/A   Overcast
6:35 AM 30.2 °F 17.8 °F 26.6 °F 86% 29.77 in 10.0 mi NW 19.6 mph 25.3 mph N/A   Overcast
6:55 AM 30.2 °F 17.8 °F 21.2 °F 69% 29.78 in 10.0 mi NNW 19.6 mph 26.5 mph N/A   Overcast
7:14 AM 28.4 °F 16.2 °F 21.2 °F 74% 29.80 in 10.0 mi NNW 17.3 mph 26.5 mph N/A   Overcast
7:35 AM 28.4 °F 15.4 °F 21.2 °F 74% 29.81 in 10.0 mi NNW 19.6 mph - N/A   Overcast
7:55 AM 28.4 °F 16.6 °F 21.2 °F 74% 29.81 in 10.0 mi NNW 16.1 mph - N/A   Overcast
8:14 AM 28.4 °F 17.5 °F 21.2 °F 74% 29.83 in 10.0 mi NW 13.8 mph 17.3 mph N/A   Overcast
8:35 AM 28.4 °F 15.4 °F 23.0 °F 80% 29.83 in 10.0 mi NW 19.6 mph 23.0 mph N/A   Overcast
8:55 AM 26.6 °F 13.4 °F 21.2 °F 80% 29.85 in 10.0 mi NW 18.4 mph - N/A   Overcast
9:14 AM 26.6 °F 13.4 °F 21.2 °F 80% 29.85 in 10.0 mi NW 18.4 mph - N/A   Overcast
9:35 AM 26.6 °F 13.1 °F 21.2 °F 80% 29.87 in 10.0 mi NW 19.6 mph - N/A   Overcast
9:55 AM 26.6 °F 14.7 °F 21.2 °F 80% 29.87 in 10.0 mi NW 15.0 mph - N/A   Overcast
10:14 AM 26.6 °F 12.7 °F 21.2 °F 80% 29.88 in 10.0 mi NW 20.7 mph - N/A   Overcast
10:35 AM 24.8 °F 11.5 °F 19.4 °F 80% 29.89 in 10.0 mi NW 17.3 mph 23.0 mph N/A   Overcast
10:55 AM 24.8 °F 10.7 °F 19.4 °F 80% 29.90 in 10.0 mi NW 19.6 mph - N/A   Overcast
11:14 AM 24.8 °F 11.1 °F 19.4 °F 80% 29.91 in 10.0 mi NW 18.4 mph - N/A   Overcast
11:35 AM 24.8 °F 11.1 °F 19.4 °F 80% 29.90 in 10.0 mi NW 18.4 mph - N/A   Overcast
11:54 AM 24.8 °F 11.5 °F 19.4 °F 80% 29.91 in 10.0 mi NW 17.3 mph - N/A   Overcast
12:14 PM 24.8 °F 12.4 °F 19.4 °F 80% 29.91 in 10.0 mi NW 15.0 mph - N/A   Overcast
12:35 PM 24.8 °F 11.5 °F 17.6 °F 74% 29.91 in 10.0 mi NW 17.3 mph 20.7 mph N/A   Overcast
12:54 PM 26.6 °F 13.8 °F 17.6 °F 69% 29.91 in 10.0 mi WNW 17.3 mph 20.7 mph N/A   Mostly Cloudy
1:14 PM 26.6 °F 14.7 °F 17.6 °F 69% 29.91 in 10.0 mi NW 15.0 mph 21.9 mph N/A   Mostly Cloudy
1:35 PM 26.6 °F 14.3 °F 17.6 °F 69% 29.91 in 10.0 mi WNW 16.1 mph - N/A   Scattered Clouds
1:54 PM 28.4 °F 17.0 °F 17.6 °F 64% 29.91 in 10.0 mi NW 15.0 mph - N/A   Clear
2:15 PM 28.4 °F 15.4 °F 17.6 °F 64% 29.92 in 10.0 mi WNW 19.6 mph 23.0 mph N/A   Clear
2:35 PM 28.4 °F 17.0 °F 17.6 °F 64% 29.92 in 10.0 mi NW 15.0 mph - N/A   Clear
2:54 PM 28.4 °F 17.5 °F 17.6 °F 64% 29.92 in 10.0 mi NW 13.8 mph - N/A   Clear
3:15 PM 28.4 °F 16.6 °F 17.6 °F 64% 29.92 in 10.0 mi NW 16.1 mph 21.9 mph N/A   Clear
3:35 PM 28.4 °F 16.2 °F 17.6 °F 64% 29.94 in 10.0 mi NW 17.3 mph - N/A   Clear
3:54 PM 26.6 °F 14.7 °F 17.6 °F 69% 29.94 in 10.0 mi WNW 15.0 mph - N/A   Clear
4:15 PM 26.6 °F 15.7 °F 17.6 °F 69% 29.95 in 10.0 mi NW 12.7 mph - N/A   Clear
4:35 PM 24.8 °F 16.1 °F 17.6 °F 74% 29.95 in 10.0 mi NW 8.1 mph - N/A   Clear
4:54 PM 24.8 °F 16.9 °F 17.6 °F 74% 29.95 in 10.0 mi WNW 6.9 mph - N/A   Clear
5:15 PM 23.0 °F 14.7 °F 17.6 °F 80% 29.95 in 10.0 mi WNW 6.9 mph - N/A   Mostly Cloudy
5:34 PM 24.8 °F 16.9 °F 19.4 °F 80% 29.96 in 10.0 mi WNW 6.9 mph - N/A   Overcast
5:54 PM 24.8 °F 16.1 °F 19.4 °F 80% 29.96 in 10.0 mi NW 8.1 mph - N/A   Overcast
6:15 PM 26.6 °F 20.0 °F 19.4 °F 74% 29.96 in 10.0 mi WNW 5.8 mph - N/A   Overcast
6:34 PM 26.6 °F 20.0 °F 21.2 °F 80% 29.97 in 10.0 mi West 5.8 mph - N/A   Overcast
7:15 PM 24.8 °F 20.5 °F 21.2 °F 86% 29.95 in 10.0 mi West 3.5 mph - N/A   Overcast
7:34 PM 24.8 °F 16.9 °F 21.2 °F 86% 29.96 in 10.0 mi WSW 6.9 mph - N/A   Mostly Cloudy
7:55 PM 24.8 °F 16.9 °F 19.4 °F 80% 29.96 in 10.0 mi West 6.9 mph - N/A   Scattered Clouds
8:15 PM 24.8 °F 16.9 °F 19.4 °F 80% 29.96 in 10.0 mi West 6.9 mph - N/A   Scattered Clouds
8:34 PM 23.0 °F 13.9 °F 19.4 °F 86% 29.96 in 10.0 mi West 8.1 mph - N/A   Clear
8:55 PM 23.0 °F 14.7 °F 19.4 °F 86% 29.96 in 10.0 mi West 6.9 mph - N/A   Clear
9:15 PM 21.2 °F 12.6 °F 19.4 °F 93% 29.97 in 10.0 mi West 6.9 mph - N/A   Clear
9:34 PM 21.2 °F 12.6 °F 17.6 °F 86% 29.97 in 10.0 mi West 6.9 mph - N/A   Clear
9:55 PM 21.2 °F 10.9 °F 19.4 °F 93% 29.97 in 10.0 mi WNW 9.2 mph - N/A   Clear
10:15 PM 21.2 °F 10.9 °F 17.6 °F 86% 29.98 in 10.0 mi WNW 9.2 mph - N/A   Clear
10:34 PM 19.4 °F 8.6 °F 17.6 °F 93% 29.99 in 10.0 mi WNW 9.2 mph - N/A   Clear
10:55 PM 19.4 °F 9.5 °F 17.6 °F 93% 30.00 in 10.0 mi NW 8.1 mph - N/A   Clear
11:15 PM 19.4 °F 9.5 °F 15.8 °F 86% 30.01 in 10.0 mi NW 8.1 mph - N/A   Clear
11:34 PM 17.6 °F 8.2 °F 15.8 °F 93% 30.01 in 10.0 mi NNW 6.9 mph - N/A   Clear
11:55 PM 17.6 °F 8.2 °F 15.8 °F 93% 30.01 in 10.0 mi NW 6.9 mph - N/A   Clear